COSMOS 1481 DEB, 14192

Orbit data source: Space-Track

COSMOS 1481 DEB, 14192 is space debris in HEO originally from a launch on Fri, 08 Jul 1983 UTC launched from the Plesetsk Missile And Space Complex (PKMTR). Debris objects in space refer to the collection of defunct objects orbiting the Earth. Examples of debris include non-operational satellites, rocket bodies, and fragments generated from explosions, collisions, or faulty payload assembly.

Loading next visibility...
Identifier
14192, 1983-070E
Orbit
HEO
Country
Flag of CISCIS
Related business
Manufacturer
Unknown
Mission
Spacecraft
Bus & Motor
Unknown
Mass
Unknown
Launch date (UTC)
1983-07-08 (43 years ago)
Launch vehicle
Unknown
Launch site
Plesetsk Missile And Space Complex (PKMTR)
Object type
Payload
Rocket body
Debris
Shape & HBR
Unknown shape, 1.1 m
Radar Cross Section
Large (>1 m²)

Expand to show TLE details & history
Last TLE update: 3 days ago

TLE from 3 days ago
0 COSMOS 1481 DEB
1 14192U 83070E   26170.48730650  .00000464  00000-0  00000-0 0  9998
2 14192  70.4458 235.7574 5612272 235.2038  37.9486  2.03130616239663
Epoch: 2026-06-19T11:41Z
TLE epoch observation values (Epoch: 2026-06-19T11:41:43.281Z)
Latitude
-20.24791°
Longitude
145.10995°
Altitude
14,350.851 km
Speed
4.83 km/s
True Right ascension
15h 13m 01s
True Declination
-20° 12' 34"
Sunlit
Object was in daylight at epoch
Visualization orbit readout
Latitude
Unknown
Longitude
Unknown
Altitude
Unknown
Speed
Unknown
Apparent Right ascension
Unknown
Apparent Declination
Unknown
Sunlit
N/A
Visualization observer readout
Local Sidereal Time
23:08:25
Azimuth
Unknown
Elevation
Unknown
Doppler factor
Unknown
Orbital elements
Apogee altitude
34,737.007 km
Perigee altitude
5,177.008 km
Semi-major axis
26,335.144 km
Eccentricity
0.56123
Inclination
70.4458°
RAAN
235.7574°
Arg. of periapsis
235.2038°
True anomaly
103.3528°
Mean anomaly
37.9486°
Eccentric anomaly
67.69949°
Mean motion
0.50785 °/min
Orbital period
708.86 mins
BSTAR
0
Loading maneuver chart data...
Computing Atmospheric mass density...
Loading historical data...
Loading historical data...
Loading historical data...
Loading historical data...
Loading historical data...
Loading historical data...
Loading historical data...

Documentation

Showing up to 5 results
|